Regional Weather Roundup
Issued by NWS Little Rock, AR

Home | Current Version | Previous Version | Graphics & Text | Print | Product List | Glossary On
Versions: 1 2 3 4 5 6 7 8 9 10 11 12 13 14 15 16 17 18 19 20 21 22 23 24 25 26 27 28 29 30 31 32 33 34 35 36 37 38 39 40 41 42 43 44 45 46 47 48 49 50
000
ASUS44 KLZK 261205
RWRLZK

WEATHER ROUNDUP FOR ARKANSAS
NATIONAL WEATHER SERVICE LITTLE ROCK AR
600 AM CST SUN FEB 26 2017

NOTE: "FAIR" INDICATES FEW OR NO CLOUDS BELOW 12,000 FEET WITH NO
SIGNIFICANT WEATHER AND/OR OBSTRUCTIONS TO VISIBILITY.

ARZ001-003-010-029-261300-
NORTHWEST ARKANSAS

CITY           SKY/WX    TMP DP  RH WIND       PRES   REMARKS
FAYETTEVILLE   MOCLDY    25  21  85 CALM      30.02F
6HR MIN TEMP:  21; 6HR MAX TEMP:  26;

FORT SMITH     PTCLDY    33  27  78 E7        30.06S WCI  27
6HR MIN TEMP:  32; 6HR MAX TEMP:  35;

HARRISON       CLEAR     27  20  75 SE8       30.05S WCI  19
6HR MIN TEMP:  24; 6HR MAX TEMP:  34;

BENTONVILLE    PTCLDY    34  19  55 SE6       30.01F WCI  29
6HR MIN TEMP:  30; 6HR MAX TEMP:  34;

ROGERS         MOCLDY    33  24  69 E9        30.02F WCI  25
6HR MIN TEMP:  30; 6HR MAX TEMP:  33;

SILOAM SPGS    CLOUDY    30  19  64 E8        30.00F WCI  23
6HR MIN TEMP:  28; 6HR MAX TEMP:  30;

HIGHFILL       CLOUDY    30  20  66 CALM      30.01F
6HR MIN TEMP:  27; 6HR MAX TEMP:  32;

SPRINGDALE     CLEAR     32  19  59 SE5       30.04  WCI  27
$$

ARZ004-005-016-261300-
NORTH CENTRAL ARKANSAS

CITY           SKY/WX    TMP DP  RH WIND       PRES   REMARKS
BATESVILLE     PTCLDY    27  21  80 CALM      30.14S
6HR MIN TEMP:  27; 6HR MAX TEMP:  32;

FLIPPIN        CLEAR     25  18  74 CALM      30.07S
6HR MIN TEMP:  25; 6HR MAX TEMP:  28;

MTN HOME       CLEAR     30  18  60 SE5       30.07S WCI  25
6HR MIN TEMP:  30; 6HR MAX TEMP:  33;

$$

ARZ040-041-261300-
WEST CENTRAL ARKANSAS

CITY           SKY/WX    TMP DP  RH WIND       PRES   REMARKS
MENA           CLEAR     28  28 100 W3        30.07R
MOUNT IDA      CLEAR     26  23  88 CALM      30.06S FOG
6HR MIN TEMP:  26; 6HR MAX TEMP:  30;

$$

ARZ009-017-025-026-028-261300-
NORTHEAST ARKANSAS

CITY           SKY/WX    TMP DP  RH WIND       PRES   REMARKS
JONESBORO      CLEAR     30  24  78 NE5       30.16R WCI  25
6HR MIN TEMP:  28; 6HR MAX TEMP:  33;

NEWPORT        PTCLDY    29  27  92 MISG      30.16R
6HR MIN TEMP:  28; 6HR MAX TEMP:  36;

WALNUT RIDGE   PTCLDY    30  23  74 NE3       30.15S
6HR MIN TEMP:  28; 6HR MAX TEMP:  36;

BLYTHEVILLE    CLEAR     31  24  75 E8        30.18S WCI  23
6HR MIN TEMP:  27; 6HR MAX TEMP:  33;

$$

ARZ022-023-033-042-044-261300-
CENTRAL ARKANSAS

CITY           SKY/WX    TMP DP  RH WIND       PRES   REMARKS
LITTLE ROCK    PTCLDY    33  30  88 CALM      30.14R
6HR MIN TEMP:  31; 6HR MAX TEMP:  36;

N LITTLE ROCK    N/A     37  28  72 SE6       30.15R
6HR MIN TEMP:  36; 6HR MAX TEMP:  41;

JACKSONVILLE   CLEAR     29  27  91 CALM      30.12R
6HR MIN TEMP:  28; 6HR MAX TEMP:  32;

SEARCY         CLEAR     28  27  96 CALM      30.17R
6HR MIN TEMP:  28; 6HR MAX TEMP:  29;

HOT SPRINGS    CLEAR     35  24  64 E6        30.11R WCI  30
6HR MIN TEMP:  32; 6HR MAX TEMP:  38;

RUSSELLVILLE   CLEAR     28  26  92 NE3       30.09S
6HR MIN TEMP:  28; 6HR MAX TEMP:  30;

CLINTON        FAIR      27  25  93 CALM      30.13S
$$

ARZ036-261300-
EAST ARKANSAS

CITY           SKY/WX    TMP DP  RH WIND       PRES   REMARKS
WEST MEMPHIS   CLEAR     30  26  85 SE6       30.16S WCI  24
6HR MIN TEMP:  29; 6HR MAX TEMP:  34;

$$

ARZ050-053-066-070-073-261300-
SOUTHWEST ARKANSAS

CITY           SKY/WX    TMP DP  RH WIND       PRES   REMARKS
ARKADELPHIA    FAIR      29  29 100 NE3       30.13S
6HR MIN TEMP:  28; 6HR MAX TEMP:  33;

CAMDEN         CLEAR     32  27  80 CALM      30.12F
TEXARKANA      CLEAR     37  28  70 E5        30.08R
6HR MIN TEMP:  36; 6HR MAX TEMP:  42;

EL DORADO      CLEAR     38  28  67 SE9       30.11F
6HR MIN TEMP:  34; 6HR MAX TEMP:  38;

DE QUEEN       CLEAR     33  28  81 E6        30.07R WCI  28
6HR MIN TEMP:  29; 6HR MAX TEMP:  33;

$$

ARZ056-057-069-261300-
SOUTHEAST ARKANSAS

CITY           SKY/WX    TMP DP  RH WIND       PRES   REMARKS
PINE BLUFF     CLEAR     34  29  82 SE7       30.14R WCI  28
6HR MIN TEMP:  33; 6HR MAX TEMP:  38;

STUTTGART      CLEAR     36  23  60 SE7       30.15R
6HR MIN TEMP:  36; 6HR MAX TEMP:  41;

MONTICELLO     CLEAR     35  27  72 CALM      30.14R
6HR MIN TEMP:  33; 6HR MAX TEMP:  41;


$$





USA.gov is the U.S. government's official web portal to all federal, state and local government web resources and services.